Location: ??????
(56.0120°N, 39.1740°E)
Time: 06:49:06
(UTC+00:00)

Cosmos 2173 Rocket - Pass Details

Date: 14 April 2026
Orbit: 944 x 999 km, 83.0° (Epoch: 10 May)

Event Time Altitude Azimuth Distance (km) Brightness Sun altitude
Exits shadow 20:38:04 51° 151° (SSE) 1,175 4.0 -23.7°
Maximum altitude 20:39:28 66° 96° (E) 1,028 4.0 -23.7°
Drops below altitude 10° 20:45:30 10° 15° (NNE) 2,681 7.2 -23.9°
Sets 20:48:01 0° 13° (NNE) 3,634 8.1 -23.9°
